GSAT0101 (GALILEO-PFM)

Last updated on Thu Aug 20 2026 00:02:47 GMT+0000 (Coordinated Universal Time)

1 37846U 11060A 26230.61300057 -.00000110 00000+0 00000+0 0 9992 2 37846 56.9703 340.0697 0001421 75.4332 284.6016 1.70475751 92185
UTC large
Height (km)
Speed (km/s)
/
Latitude / Longitude
Inclination (degrees)
Orbital Period (minutes)
Azimuth
Elevation
Range (km)
Doppler Factor

Next 0 passes for location: London (51.5072 / 0.1276)

No passes found over London.
GSAT0101 (GALILEO-PFM)